Weather History for Keahole Point, HI

Change the Weather History Date:

Sunday, November 25, 2012

  Actual Average Record
Temperature  
Mean Temperature 26 °C -  
Max Temperature 30 °C 27 °C 31 °C (1985)
Min Temperature 22 °C 20 °C 16 °C (2007)
Cooling Degree Days 14    
Growing Degree Days 28 (Base 50)    
Moisture  
Dew Point 18 °C    
Average Humidity 64    
Maximum Humidity 76    
Minimum Humidity 48    
Precipitation  
Precipitation 0.00 mm - - ()
Sea Level Pressure  
Sea Level Pressure 1013 hPa    
Wind  
Wind Speed 11 km/h (ENE)    
Max Wind Speed 32 km/h    
Max Gust Speed 40 km/h    
Visibility 16 kilometers    
Events      
Averages and records for this station are not official NWS values.
T = Trace of Precipitation, MM = Missing Value Source: NWS Daily Summary

Daily Weather History Graph

Daily Weather History Graph

Search for Another Location

Airport:

Trip Planner

Search our weather history database for the weather conditions in past years. The results will help you decide how hot, cold, wet, or windy it might be!

Date:

Astronomy

Nov. 25, 2012 Rise Set
Actual Time 6:39 AM HST 5:43 PM HST
Civil Twilight 6:15 AM HST 6:07 PM HST
Nautical Twilight 5:48 AM HST 6:34 PM HST
Astronomical Twilight 5:21 AM HST 7:00 PM HST
Moon 3:56 PM HST (11/25) 4:17 AM HST (11/25)
Length of Visible Light 11h 51m
Length of Day
11h 04m
Waxing Gibbous, 94% of the Moon is Illuminated
Nov 25
Waxing Gibbous
Nov 28
Full
Dec 6
Last Quarter
Dec 12
New
Dec 19
First Quarter

Hourly Weather History & Observations

Time (HST) Temp. Heat Index Dew Point Humidity Pressure Visibility Wind Dir Wind Speed Gust Speed Precip Events Conditions
12:53 AM 23.3 °C - 17.2 °C 68% 1013.4 hPa 16.1 km SE 5.6 km/h / 1.5 m/s - N/A   Clear
1:53 AM 22.8 °C - 18.3 °C 76% 1013.7 hPa 16.1 km ESE 13.0 km/h / 3.6 m/s - N/A   Clear
2:53 AM 23.3 °C - 17.8 °C 71% 1013.2 hPa 16.1 km East 13.0 km/h / 3.6 m/s - N/A   Clear
3:53 AM 22.8 °C - 18.3 °C 76% 1012.9 hPa 16.1 km ESE 7.4 km/h / 2.1 m/s - N/A   Partly Cloudy
4:53 AM 22.2 °C - 17.2 °C 73% 1013.3 hPa 16.1 km East 9.3 km/h / 2.6 m/s - N/A   Clear
5:53 AM 22.2 °C - 16.1 °C 68% 1013.6 hPa 16.1 km East 9.3 km/h / 2.6 m/s - N/A   Clear
6:53 AM 21.7 °C - 15.6 °C 68% 1014.5 hPa 16.1 km ENE 7.4 km/h / 2.1 m/s - N/A   Clear
7:53 AM 25.0 °C - 16.7 °C 60% 1014.8 hPa 16.1 km Calm Calm - N/A   Clear
8:53 AM 25.6 °C - 19.4 °C 68% 1015.0 hPa 16.1 km West 5.6 km/h / 1.5 m/s - N/A   Clear
9:53 AM 26.7 °C 27.6 °C 17.8 °C 58% 1015.2 hPa 16.1 km NNW 20.4 km/h / 5.7 m/s - N/A   Clear
10:53 AM 28.9 °C 29.4 °C 17.2 °C 49% 1014.1 hPa 16.1 km NNW 24.1 km/h / 6.7 m/s - N/A   Clear
11:53 AM 28.9 °C 30.2 °C 18.9 °C 55% 1013.0 hPa 16.1 km NNW 29.6 km/h / 8.2 m/s - N/A   Clear
12:53 PM 30.0 °C 30.7 °C 17.8 °C 48% 1012.1 hPa 16.1 km North 22.2 km/h / 6.2 m/s - N/A   Clear
1:53 PM 28.3 °C 29.4 °C 18.9 °C 56% 1011.4 hPa 16.1 km NW 29.6 km/h / 8.2 m/s 40.7 km/h / 11.3 m/s N/A   Clear
2:53 PM 28.3 °C 29.4 °C 18.9 °C 56% 1011.2 hPa 16.1 km NNW 31.5 km/h / 8.7 m/s 38.9 km/h / 10.8 m/s N/A   Partly Cloudy
3:53 PM 28.9 °C 29.7 °C 17.8 °C 51% 1010.9 hPa 16.1 km North 27.8 km/h / 7.7 m/s - N/A   Clear
4:53 PM 26.7 °C 27.8 °C 18.9 °C 62% 1011.6 hPa 16.1 km South 20.4 km/h / 5.7 m/s - N/A   Scattered Clouds
5:53 PM 26.1 °C - 18.9 °C 64% 1012.4 hPa 16.1 km SE 13.0 km/h / 3.6 m/s - N/A   Clear
6:53 PM 25.6 °C - 19.4 °C 68% 1013.7 hPa 16.1 km South 5.6 km/h / 1.5 m/s - N/A   Scattered Clouds
7:53 PM 25.0 °C - 19.4 °C 71% 1014.2 hPa 16.1 km Calm Calm - N/A   Clear
8:53 PM 24.4 °C - 19.4 °C 74% 1014.5 hPa 16.1 km ESE 11.1 km/h / 3.1 m/s - N/A   Clear
9:53 PM 24.4 °C - 18.3 °C 69% 1014.6 hPa 16.1 km Calm Calm - N/A   Clear
10:53 PM 24.4 °C - 17.8 °C 67% 1014.7 hPa 16.1 km Variable 9.3 km/h / 2.6 m/s - N/A   Clear
11:53 PM 23.3 °C - 17.2 °C 68% 1014.3 hPa 16.1 km NE 9.3 km/h / 2.6 m/s - N/A   Clear